Flag for U.S.A. Weather past 2 weeks in Oberlin, Ohio, U.S.A.

Now
78 °F

Sunny.


Feels Like: 80 °F
Forecast: 64 / 83 °F
Wind: 5 mph from Northwest

Location: Lorain County Regional Airport

Current Time: Aug 31, 2015 at 11:41:30 AM

Latest Report: Aug 31, 2015 at 10:53 AM


Visibility: 9 mi

Pressure: 30.10 "Hg

Humidity: 74%

Dew point: 69 °F

Location of OberlinLocation

Historic Weather in Oberlin — Graph

°F

Oberlin temperature yesterday

Maximum temperature yesterday: 83 °F (at 2:53 PM)
Minimum temperature yesterday: 66 °F (at 12:53 AM)
Average temperature yesterday: 73 °F

Past Weeks' High & Low Weather Summary

 TemperatureHumidityPressure
High86 °F (Aug 19, 2:53 PM)97% (Aug 28, 12:53 AM)30.22 "Hg (Aug 28, 12:53 AM)
Low50 °F (Aug 28, 7:00 AM)38% (Aug 21, 1:53 PM)29.72 "Hg (Aug 20, 2:53 AM)
Average68 °F75%30.04 "Hg
* Reported Aug 16 9:53 AM — Aug 31 9:53 AM, Oberlin, Weather by CustomWeather, © 2015

Note: Actual official high and low records may vary slightly from our data, if they occured in-between our weather recording intervals... More about our weather records

Advertising

Oberlin weather history for previous 24 hours

 ConditionsComfort  
Time TempWeatherWind HumidityBarometerVisibility
9:53 AM
Mon, Aug 31
73 °FSunny.5 mph81%30.09 "Hg8 mi
8:53 AM69 °FSunny.3 mph87%30.09 "Hg7 mi
7:53 AM66 °FFog.3 mph93%30.08 "Hg5 mi
6:53 AM64 °FFog.5 mph94%30.06 "Hg5 mi
5:53 AM65 °FFog.5 mph94%30.04 "Hg6 mi
4:53 AM65 °FClear.5 mph94%30.04 "Hg7 mi
3:53 AM66 °FClear.6 mph90%30.03 "Hg8 mi
2:53 AM67 °FClear.No wind87%30.03 "Hg9 mi
1:53 AM67 °FClear.No wind90%30.05 "Hg9 mi
12:53 AM69 °FPassing clouds.6 mph84%30.06 "Hg10 mi
11:53 PM
Sun, Aug 30
70 °FPassing clouds.5 mph81%30.05 "Hg10 mi
10:53 PM71 °FOvercast.7 mph81%30.05 "Hg10 mi
9:53 PM72 °FPassing clouds.No wind81%30.05 "Hg10 mi
8:53 PM73 °FSunny.3 mph81%30.03 "Hg8 mi
7:53 PM77 °FSunny.3 mph74%30.02 "Hg10 mi
6:53 PM79 °FSunny.3 mph69%30.02 "Hg10 mi
5:53 PM82 °FSunny.8 mph58%30.01 "Hg10 mi
4:53 PM83 °FScattered clouds.10 mph57%30.02 "Hg10 mi
3:53 PM83 °FScattered clouds.8 mph55%30.03 "Hg10 mi
2:53 PM83 °FPassing clouds.12 mph57%30.05 "Hg10 mi
2:03 PM82 °FBroken clouds.9 mph63%30.08 "Hg10 mi
1:53 PM80 °FPartly sunny.8 mph67%30.06 "Hg10 mi
12:53 PM77 °FSunny.6 mph77%30.08 "Hg10 mi
11:53 AM74 °FPassing clouds.7 mph85%30.10 "Hg8 mi
Weather by CustomWeather, © 2015

See weather overviewHow to use our weather pages